Total_Precipitation_Accumulation
0.28 0.36 0.81 1.19 1.24 1.15 1.14 1.15 1.10 1.07 1.01 0.97 0.98 0.93 0.90 0.88 0.87 0.85 0.91 0.93 1.03 1.14 1.23 1.25 1.32 1.35 1.34 1.21 1.00 0.75 0.61 0.56 0.52 0.47 0.44 0.44 0.50 0.58 0.55 0.52 0.52 0.61 0.81
0.27 0.40 0.83 1.19 1.30 1.15 1.08 1.10 1.07 1.05 1.03 1.04 1.14 1.12 1.07 1.05 1.06 1.05 1.10 1.13 1.20 1.35 1.42 1.40 1.39 1.40 1.32 1.14 0.89 0.65 0.44 0.36 0.30 0.21 0.17 0.21 0.35 0.49 0.48 0.44 0.45 0.64 0.75
0.30 0.47 0.82 1.19 1.29 1.22 1.13 1.10 1.02 1.02 1.08 1.14 1.19 1.23 1.21 1.17 1.17 1.24 1.28 1.27 1.30 1.37 1.46 1.51 1.42 1.35 1.18 0.96 0.74 0.57 0.42 0.30 0.22 0.18 0.19 0.26 0.40 0.60 0.57 0.50 0.59 0.71 0.75
0.41 0.53 0.75 1.16 1.34 1.35 1.30 1.18 1.13 1.16 1.16 1.26 1.29 1.34 1.43 1.37 1.30 1.30 1.31 1.28 1.25 1.24 1.31 1.30 1.15 1.05 0.91 0.74 0.66 0.53 0.41 0.30 0.22 0.20 0.28 0.35 0.48 0.79 0.79 0.69 0.69 0.74 0.75
0.59 0.63 0.88 1.22 1.44 1.51 1.51 1.34 1.26 1.30 1.28 1.34 1.38 1.47 1.57 1.58 1.44 1.32 1.25 1.22 1.14 1.09 1.01 0.97 0.91 0.83 0.75 0.65 0.57 0.46 0.38 0.28 0.21 0.21 0.27 0.39 0.63 1.06 0.90 0.77 0.74 0.76 0.73
0.73 0.84 1.10 1.45 1.65 1.73 1.68 1.60 1.51 1.50 1.45 1.47 1.44 1.48 1.63 1.72 1.59 1.38 1.19 1.06 0.97 0.94 0.89 0.82 0.78 0.77 0.70 0.60 0.52 0.41 0.34 0.26 0.17 0.20 0.27 0.38 0.63 1.09 0.92 0.83 0.76 0.73 0.73
0.78 0.94 1.22 1.62 1.86 1.99 1.95 1.92 1.95 1.86 1.73 1.65 1.64 1.63 1.66 1.64 1.49 1.33 1.10 0.96 0.90 0.90 0.88 0.82 0.80 0.71 0.71 0.64 0.52 0.43 0.31 0.23 0.18 0.22 0.31 0.44 0.72 1.11 1.01 0.90 0.79 0.76 0.75
0.83 1.06 1.38 1.78 1.93 2.06 2.11 2.10 2.09 2.06 1.95 1.83 1.75 1.71 1.71 1.61 1.44 1.29 1.14 1.00 0.93 0.91 0.93 0.84 0.78 0.70 0.68 0.62 0.55 0.45 0.30 0.19 0.18 0.22 0.30 0.44 0.75 1.01 0.93 0.82 0.81 0.79 0.75
1.09 1.30 1.56 1.85 2.01 2.16 2.12 2.08 2.10 2.05 2.01 1.89 1.78 1.65 1.56 1.49 1.41 1.29 1.14 1.04 1.01 1.00 1.00 0.91 0.80 0.69 0.66 0.63 0.57 0.41 0.27 0.18 0.18 0.22 0.27 0.43 0.70 0.94 0.88 0.80 0.82 0.81 0.77
1.52 1.68 1.84 1.97 2.06 2.14 2.08 2.02 2.08 2.08 2.07 2.04 1.90 1.61 1.43 1.33 1.35 1.27 1.10 1.05 0.98 0.96 0.98 0.95 0.86 0.73 0.64 0.57 0.50 0.38 0.30 0.26 0.21 0.22 0.29 0.39 0.66 0.89 0.88 0.83 0.81 0.83 0.82
2.07 2.03 2.15 2.23 2.27 2.28 2.25 2.12 2.20 2.22 2.19 2.10 2.01 1.72 1.50 1.44 1.38 1.27 1.08 0.99 0.95 0.91 0.91 0.96 0.90 0.79 0.67 0.52 0.44 0.39 0.38 0.34 0.28 0.32 0.38 0.50 0.76 0.93 0.98 0.95 0.83 0.84 0.83
2.33 2.28 2.29 2.38 2.32 2.37 2.37 2.36 2.42 2.33 2.28 2.16 1.91 1.81 1.72 1.61 1.46 1.27 1.17 1.04 0.99 0.93 0.93 1.00 0.94 0.79 0.66 0.54 0.44 0.39 0.38 0.38 0.38 0.36 0.42 0.65 0.96 1.09 1.08 1.02 0.94 0.89 0.84
2.42 2.51 2.51 2.59 2.56 2.46 2.50 2.42 2.48 2.47 2.40 2.32 2.10 1.96 1.92 1.90 1.71 1.52 1.34 1.30 1.20 1.09 1.07 1.03 1.00 0.75 0.58 0.52 0.49 0.42 0.37 0.37 0.42 0.43 0.43 0.61 0.98 1.18 1.18 1.11 1.07 1.02 0.95
2.72 2.75 2.80 2.79 2.83 2.64 2.55 2.49 2.52 2.53 2.45 2.33 2.11 2.00 1.95 1.88 1.78 1.61 1.40 1.26 1.23 1.09 1.07 1.03 0.89 0.71 0.63 0.56 0.51 0.50 0.45 0.41 0.40 0.46 0.47 0.52 0.81 1.09 1.19 1.21 1.21 1.14 1.11
2.98 3.05 3.11 3.00 3.00 2.95 2.76 2.59 2.58 2.68 2.63 2.50 2.30 2.09 1.93 1.78 1.67 1.63 1.56 1.45 1.32 1.19 1.09 1.04 0.94 0.83 0.73 0.65 0.57 0.53 0.50 0.44 0.41 0.41 0.44 0.48 0.62 0.90 1.19 1.32 1.42 1.43 1.40
3.19 3.39 3.44 3.30 3.13 3.10 2.92 2.64 2.56 2.71 2.81 2.85 2.57 2.25 2.18 2.02 1.88 1.77 1.68 1.60 1.46 1.34 1.24 1.15 1.03 1.01 0.91 0.80 0.68 0.58 0.56 0.54 0.49 0.46 0.43 0.45 0.51 0.65 0.99 1.30 1.49 1.55 1.55
3.08 3.43 3.63 3.57 3.47 3.28 3.19 2.98 2.68 2.79 2.91 2.95 2.82 2.54 2.45 2.34 2.17 2.08 1.91 1.72 1.50 1.40 1.39 1.38 1.35 1.30 1.20 0.98 0.83 0.70 0.63 0.61 0.57 0.49 0.45 0.45 0.46 0.51 0.73 1.08 1.30 1.45 1.52
3.04 3.24 3.60 3.69 3.73 3.60 3.40 3.25 2.91 2.81 2.92 2.92 2.79 2.67 2.56 2.47 2.36 2.27 2.10 1.89 1.73 1.63 1.57 1.53 1.53 1.48 1.36 1.16 0.97 0.87 0.77 0.69 0.62 0.58 0.53 0.50 0.49 0.47 0.57 0.79 0.97 1.13 1.35
3.02 3.16 3.47 3.65 3.79 3.92 3.87 3.74 3.37 3.03 3.02 3.03 2.87 2.67 2.57 2.51 2.45 2.35 2.20 2.02 1.93 1.85 1.73 1.63 1.61 1.56 1.50 1.36 1.18 1.05 0.97 0.90 0.82 0.75 0.68 0.63 0.62 0.61 0.59 0.66 0.75 0.84 1.04
3.27 3.42 3.52 3.74 4.00 4.27 4.46 4.35 4.09 3.57 3.22 3.12 3.02 2.82 2.62 2.53 2.46 2.40 2.29 2.18 2.06 2.02 1.93 1.81 1.69 1.62 1.56 1.56 1.48 1.32 1.20 1.12 1.02 0.92 0.82 0.75 0.75 0.76 0.75 0.73 0.69 0.69 0.80
3.36 3.59 3.70 3.76 4.02 4.38 4.38 4.19 3.98 3.71 3.43 3.17 3.06 3.02 2.82 2.66 2.52 2.44 2.32 2.31 2.22 2.09 2.00 1.96 1.95 1.94 1.83 1.80 1.87 1.74 1.49 1.35 1.27 1.10 0.97 0.87 0.84 0.87 0.88 0.86 0.80 0.72 0.74
3.11 3.51 3.60 3.81 4.07 4.34 4.27 4.16 4.07 4.04 3.86 3.57 3.40 3.14 2.97 2.81 2.62 2.53 2.43 2.31 2.27 2.20 2.10 2.04 2.03 2.15 2.21 2.19 2.17 2.15 2.01 1.80 1.46 1.22 1.13 1.01 0.94 0.99 1.04 1.01 0.96 0.88 0.83
2.57 3.08 3.33 3.49 3.86 4.13 4.33 4.67 4.69 4.53 4.23 3.77 3.47 3.29 3.10 3.07 2.91 2.68 2.61 2.50 2.34 2.25 2.18 2.08 1.95 1.93 2.10 2.27 2.29 2.40 2.23 1.91 1.60 1.40 1.22 1.12 1.05 1.02 1.02 1.04 1.04 1.00 0.95
2.18 2.63 3.07 3.36 3.64 3.87 4.04 4.30 4.45 4.28 3.90 3.52 3.29 3.31 3.35 3.29 3.27 3.11 2.89 2.72 2.59 2.42 2.25 2.21 2.19 2.06 2.04 2.15 2.21 2.16 2.05 1.80 1.73 1.64 1.40 1.25 1.17 1.12 1.07 1.03 1.01 1.02 1.08
1.93 2.39 2.81 3.12 3.46 3.65 3.80 3.92 4.12 4.18 4.02 3.84 3.60 3.51 3.53 3.45 3.34 3.23 3.13 2.96 2.77 2.66 2.51 2.40 2.32 2.31 2.25 2.20 2.18 2.10 2.07 1.85 1.63 1.62 1.50 1.33 1.31 1.23 1.17 1.10 1.04 1.05 1.10
1.78 2.06 2.48 2.85 3.25 3.54 3.69 3.89 3.96 3.89 3.92 3.89 3.60 3.55 3.55 3.63 3.54 3.30 3.13 3.06 2.93 2.84 2.74 2.64 2.56 2.50 2.42 2.30 2.25 2.20 2.19 2.15 1.89 1.75 1.60 1.38 1.37 1.29 1.26 1.24 1.18 1.14 1.15